Tracking 27380 objects as of 6-Jun-2023
HD Live streaming from Space Station
objects crossing your sky now

BREEZE-M DEB

Track BREEZE-M DEB now!


NORAD ID: 41321
Int'l Code: 2012-026H
Perigee: 10,311.6 km
Apogee: 34,674.1 km
Inclination: 10.1 °
Period: 813.4 minutes
Semi major axis: 28863 km
RCS: Unknown
Launch date: May 17, 2012
Source: Commonwealth of Independent States (former USSR) (CIS)
Launch site: TYURATAM MISSILE AND SPACE COMPLEX (TTMTR)

Note: This is SATELLITE DEBRIS
Your satellite tracking list
Your tracking list is empty




NASA's NSSDC Master Catalog

Two Line Element Set (TLE):
1 41321U 12026H   23156.26642024 -.00000043  00000-0  00000-0 0  9993
2 41321  10.1210 233.9067 4220250 229.9689  84.8310  1.77039896 48116
Source of the keplerian elements: AFSPC